Location: Plzen
(49.7500°N, 13.3670°E)
Time: 11:09:59
(UTC+01:00)

ISS - Pass Details

Date: 29 September 2023
Orbit: 416 x 417 km, 51.6° (Epoch: 01 December)

Event Time Altitude Azimuth Distance (km) Brightness Sun altitude
Rises 18:59:09 0° 285° (WNW) 2,379 1.9 -2.3°
Reaches altitude 10° 19:01:16 10° 287° (WNW) 1,507 0.6 -2.6°
Maximum altitude 19:04:39 81° 14° (NNE) 428 -3.7 -3.2°
Drops below altitude 10° 19:08:00 10° 103° (ESE) 1,492 -1.6 -3.7°
Enters shadow 19:09:06 - 104° (ESE) 1,944 -1.0 -3.9°
